| time (UTC) | temp F | wind direction | speed knots | gust knots | rain 1hr in | rain 24hr in | rain mn in | humidity % | barometer mb |
| 20260831034035 | 72 | 258 | 0.9 | 2.6 | 0.00 | 0.00 | 0.00 | 86 | 1012.0 |
| 20260831033533 | 72 | 271 | 0.9 | 3.5 | 0.00 | 0.00 | 0.00 | 86 | 1012.0 |
| 20260831033059 | 72 | 284 | 0.9 | 3.5 | 0.00 | 0.00 | 0.00 | 86 | 1011.9 |
| 20260831032535 | 72 | 276 | 1.7 | 3.5 | 0.00 | 0.00 | 0.00 | 86 | 1011.9 |
| 20260831032034 | 72 | 237 | 0.9 | 4.3 | 0.00 | 0.00 | 0.00 | 86 | 1011.8 |
| 20260831031601 | 72 | 312 | 0.0 | 4.3 | 0.00 | 0.00 | 0.00 | 85 | 1011.7 |
| 20260831031031 | 72 | 290 | 1.7 | 4.3 | 0.00 | 0.00 | 0.00 | 85 | 1011.6 |
| 20260831030531 | 73 | 298 | 0.9 | 2.6 | 0.00 | 0.00 | 0.00 | 85 | 1011.5 |
| 20260831030107 | 73 | 288 | 0.9 | 2.6 | 0.00 | 0.00 | 0.00 | 85 | 1011.6 |
| 20260831025535 | 73 | 292 | 0.9 | 1.7 | 0.00 | 0.00 | 0.00 | 85 | 1011.6 |
| 20260831025031 | 73 | 0 | 0.0 | 2.6 | 0.00 | 0.00 | 0.00 | 85 | 1011.6 |
| 20260831024553 | 73 | 0 | 0.0 | 5.2 | 0.00 | 0.00 | 0.00 | 85 | 1011.6 |
| 20260831024035 | 73 | 207 | 0.9 | 5.2 | 0.00 | 0.00 | 0.00 | 85 | 1011.6 |
| 20260831023534 | 73 | 209 | 0.9 | 5.2 | 0.00 | 0.00 | 0.00 | 84 | 1011.5 |
| 20260831023058 | 73 | 267 | 0.9 | 3.5 | 0.00 | 0.00 | 0.00 | 84 | 1011.4 |
| 20260831022534 | 73 | 271 | 0.9 | 3.5 | 0.00 | 0.00 | 0.00 | 84 | 1011.4 |
| 20260831022034 | 73 | 227 | 0.0 | 3.5 | 0.00 | 0.00 | 0.00 | 84 | 1011.4 |
| 20260831021605 | 73 | 248 | 0.9 | 3.5 | 0.00 | 0.00 | 0.00 | 84 | 1011.3 |
| 20260831021032 | 74 | 0 | 0.0 | 4.3 | 0.00 | 0.00 | 0.00 | 84 | 1011.2 |
| 20260831020532 | 74 | 286 | 1.7 | 4.3 | 0.00 | 0.00 | 0.00 | 83 | 1011.3 |
| 20260831020108 | 74 | 211 | 1.7 | 4.3 | 0.00 | 0.00 | 0.00 | 83 | 1011.3 |
| 20260831015532 | 74 | 300 | 1.7 | 4.3 | 0.00 | 0.00 | 0.00 | 83 | 1011.2 |
| 20260831015034 | 75 | 294 | 1.7 | 4.3 | 0.00 | 0.00 | 0.00 | 82 | 1011.1 |
| 20260831014603 | 75 | 245 | 1.7 | 3.5 | 0.00 | 0.00 | 0.00 | 82 | 1011.1 |
| 20260831014033 | 75 | 273 | 0.9 | 4.3 | 0.00 | 0.00 | 0.00 | 82 | 1011.2 |
| 20260831013532 | 75 | 278 | 1.7 | 4.3 | 0.00 | 0.00 | 0.00 | 81 | 1011.1 |
| 20260831013102 | 76 | 223 | 1.7 | 4.3 | 0.00 | 0.00 | 0.00 | 81 | 1011.1 |
| 20260831012531 | 76 | 225 | 2.6 | 7.0 | 0.00 | 0.00 | 0.00 | 80 | 1011.1 |
| 20260831012032 | 76 | 317 | 0.9 | 7.0 | 0.00 | 0.00 | 0.00 | 80 | 1011.0 |
| 20260831011612 | 77 | 248 | 1.7 | 7.0 | 0.00 | 0.00 | 0.00 | 79 | 1011.2 |
| 20260831011032 | 77 | 307 | 1.7 | 6.1 | 0.00 | 0.00 | 0.00 | 79 | 1011.2 |
| 20260831010532 | 77 | 274 | 1.7 | 5.2 | 0.00 | 0.00 | 0.00 | 79 | 1011.2 |
| 20260831010057 | 78 | 236 | 1.7 | 5.2 | 0.00 | 0.00 | 0.00 | 77 | 1011.2 |
| 20260831005533 | 78 | 235 | 2.6 | 6.1 | 0.00 | 0.00 | 0.00 | 77 | 1011.3 |
| 20260831005033 | 78 | 234 | 2.6 | 6.1 | 0.00 | 0.00 | 0.00 | 77 | 1011.2 |
| 20260831004556 | 78 | 213 | 1.7 | 6.1 | 0.00 | 0.00 | 0.00 | 77 | 1011.3 |
| 20260831004033 | 79 | 256 | 3.5 | 6.1 | 0.00 | 0.00 | 0.00 | 76 | 1011.1 |
| 20260831003532 | 79 | 227 | 1.7 | 5.2 | 0.00 | 0.00 | 0.00 | 76 | 1011.2 |
| 20260831003054 | 79 | 273 | 2.6 | 6.1 | 0.00 | 0.00 | 0.00 | 75 | 1011.2 |
| 20260831002535 | 79 | 255 | 2.6 | 7.8 | 0.00 | 0.00 | 0.00 | 75 | 1011.2 |
| 20260831002031 | 79 | 209 | 2.6 | 7.8 | 0.00 | 0.00 | 0.00 | 74 | 1011.3 |
| 20260831001603 | 79 | 269 | 3.5 | 7.8 | 0.00 | 0.00 | 0.00 | 74 | 1011.3 |
| 20260831001031 | 79 | 266 | 3.5 | 7.0 | 0.00 | 0.00 | 0.00 | 74 | 1011.2 |
| 20260831000531 | 79 | 209 | 2.6 | 7.0 | 0.00 | 0.00 | 0.00 | 74 | 1011.3 |
| 20260831000103 | 80 | 275 | 2.6 | 7.0 | 0.00 | 0.00 | 0.00 | 74 | 1011.2 |
| 20260830235531 | 80 | 237 | 3.5 | 7.0 | 0.00 | 0.00 | 0.00 | 74 | 1011.2 |
| 20260830235033 | 80 | 0 | 2.6 | 7.0 | 0.00 | 0.00 | 0.00 | 74 | 1011.3 |
| 20260830234557 | 80 | 236 | 2.6 | 7.0 | 0.00 | 0.00 | 0.00 | 74 | 1011.4 |
| 20260830234032 | 80 | 310 | 2.6 | 7.0 | 0.00 | 0.00 | 0.00 | 75 | 1011.4 |
| 20260830233533 | 80 | 242 | 3.5 | 7.0 | 0.00 | 0.00 | 0.00 | 75 | 1011.3 |
| 20260830233055 | 80 | 308 | 2.6 | 8.7 | 0.00 | 0.00 | 0.00 | 74 | 1011.3 |
| 20260830232538 | 80 | 289 | 2.6 | 8.7 | 0.00 | 0.00 | 0.00 | 74 | 1011.2 |
| 20260830232033 | 81 | 272 | 2.6 | 8.7 | 0.00 | 0.00 | 0.00 | 74 | 1011.3 |
| 20260830231558 | 81 | 235 | 1.7 | 7.0 | 0.00 | 0.00 | 0.00 | 75 | 1011.3 |
| 20260830231033 | 80 | 265 | 3.5 | 7.0 | 0.00 | 0.00 | 0.00 | 74 | 1011.4 |
| 20260830230532 | 80 | 248 | 1.7 | 7.0 | 0.00 | 0.00 | 0.00 | 74 | 1011.4 |
| 20260830225531 | 80 | 309 | 2.6 | 7.0 | 0.00 | 0.00 | 0.00 | 75 | 1011.4 |
| 20260830225032 | 80 | 259 | 2.6 | 8.7 | 0.00 | 0.00 | 0.00 | 76 | 1011.5 |
| 20260830224621 | 80 | 288 | 1.7 | 8.7 | 0.00 | 0.00 | 0.00 | 76 | 1011.6 |
| 20260830224035 | 80 | 279 | 4.3 | 8.7 | 0.00 | 0.00 | 0.00 | 75 | 1011.6 |
| 20260830223532 | 80 | 265 | 4.3 | 7.8 | 0.00 | 0.00 | 0.00 | 75 | 1011.7 |
| 20260830223056 | 80 | 276 | 4.3 | 8.7 | 0.00 | 0.00 | 0.00 | 74 | 1011.7 |
| 20260830222535 | 80 | 212 | 4.3 | 8.7 | 0.00 | 0.00 | 0.00 | 75 | 1011.7 |
| 20260830222032 | 81 | 270 | 4.3 | 7.8 | 0.00 | 0.00 | 0.00 | 75 | 1011.7 |
| 20260830221614 | 81 | 286 | 2.6 | 7.8 | 0.00 | 0.00 | 0.00 | 74 | 1011.7 |
| 20260830221032 | 81 | 323 | 3.5 | 8.7 | 0.00 | 0.00 | 0.00 | 74 | 1011.7 |
| 20260830220532 | 81 | 272 | 2.6 | 8.7 | 0.00 | 0.00 | 0.00 | 74 | 1011.8 |
| 20260830215531 | 81 | 282 | 3.5 | 7.0 | 0.00 | 0.00 | 0.00 | 74 | 1011.9 |
| 20260830215031 | 81 | 236 | 2.6 | 7.0 | 0.00 | 0.00 | 0.00 | 74 | 1011.9 |
| 20260830214605 | 81 | 251 | 3.5 | 7.0 | 0.00 | 0.00 | 0.00 | 74 | 1011.9 |
| 20260830214031 | 81 | 315 | 3.5 | 8.7 | 0.00 | 0.00 | 0.00 | 72 | 1011.9 |
| 20260830213534 | 81 | 278 | 2.6 | 8.7 | 0.00 | 0.00 | 0.00 | 73 | 1012.0 |
| 20260830213055 | 81 | 269 | 3.5 | 8.7 | 0.00 | 0.00 | 0.00 | 73 | 1012.0 |
| 20260830212532 | 80 | 234 | 3.5 | 7.0 | 0.00 | 0.00 | 0.00 | 72 | 1012.1 |
| 20260830212032 | 80 | 279 | 2.6 | 9.6 | 0.00 | 0.00 | 0.00 | 76 | 1012.2 |
| 20260830211559 | 80 | 175 | 3.5 | 9.6 | 0.00 | 0.00 | 0.00 | 74 | 1012.3 |
| 20260830211031 | 80 | 203 | 3.5 | 7.8 | 0.00 | 0.00 | 0.00 | 74 | 1012.3 |
| 20260830210534 | 80 | 243 | 3.5 | 8.7 | 0.00 | 0.00 | 0.00 | 75 | 1012.4 |
| 20260830210100 | 80 | 221 | 4.3 | 9.6 | 0.00 | 0.00 | 0.00 | 75 | 1012.3 |
| 20260830205531 | 80 | 251 | 4.3 | 9.6 | 0.00 | 0.00 | 0.00 | 76 | 1012.3 |
| 20260830205031 | 80 | 248 | 4.3 | 7.8 | 0.00 | 0.00 | 0.00 | 75 | 1012.4 |
| 20260830204553 | 80 | 215 | 3.5 | 10.4 | 0.00 | 0.00 | 0.00 | 75 | 1012.4 |
| 20260830204034 | 80 | 279 | 3.5 | 10.4 | 0.00 | 0.00 | 0.00 | 76 | 1012.4 |
| 20260830203531 | 80 | 190 | 3.5 | 7.8 | 0.00 | 0.00 | 0.00 | 75 | 1012.4 |
| 20260830203058 | 80 | 302 | 4.3 | 7.0 | 0.00 | 0.00 | 0.00 | 75 | 1012.4 |
| 20260830202531 | 81 | 261 | 4.3 | 9.6 | 0.00 | 0.00 | 0.00 | 75 | 1012.4 |
| 20260830202032 | 81 | 255 | 3.5 | 9.6 | 0.00 | 0.00 | 0.00 | 76 | 1012.4 |
| 20260830201556 | 80 | 304 | 4.3 | 7.8 | 0.00 | 0.00 | 0.00 | 75 | 1012.4 |
| 20260830201031 | 80 | 227 | 3.5 | 7.8 | 0.00 | 0.00 | 0.00 | 75 | 1012.4 |
| 20260830200537 | 80 | 255 | 4.3 | 7.8 | 0.00 | 0.00 | 0.00 | 74 | 1012.3 |
| 20260830200056 | 81 | 273 | 4.3 | 7.8 | 0.00 | 0.00 | 0.00 | 75 | 1012.4 |
| 20260830195531 | 80 | 289 | 3.5 | 7.8 | 0.00 | 0.00 | 0.00 | 77 | 1012.4 |
| 20260830195031 | 80 | 277 | 3.5 | 7.0 | 0.00 | 0.00 | 0.00 | 77 | 1012.3 |
| 20260830194605 | 80 | 233 | 2.6 | 7.0 | 0.00 | 0.00 | 0.00 | 77 | 1012.4 |
| 20260830194031 | 80 | 269 | 3.5 | 9.6 | 0.00 | 0.00 | 0.00 | 77 | 1012.5 |
| 20260830193531 | 80 | 213 | 2.6 | 9.6 | 0.00 | 0.00 | 0.00 | 77 | 1012.5 |
| 20260830193058 | 79 | 231 | 4.3 | 8.7 | 0.00 | 0.00 | 0.00 | 77 | 1012.5 |
| 20260830192532 | 80 | 217 | 3.5 | 7.8 | 0.00 | 0.00 | 0.00 | 78 | 1012.5 |
| 20260830192031 | 80 | 223 | 3.5 | 7.8 | 0.00 | 0.00 | 0.00 | 77 | 1012.6 |
| 20260830191553 | 79 | 246 | 2.6 | 8.7 | 0.00 | 0.00 | 0.00 | 78 | 1012.6 |
| 20260830191032 | 79 | 205 | 4.3 | 8.7 | 0.00 | 0.00 | 0.00 | 78 | 1012.6 |
| 20260830190533 | 79 | 274 | 4.3 | 8.7 | 0.00 | 0.00 | 0.00 | 78 | 1012.7 |
| 20260830190053 | 79 | 258 | 3.5 | 8.7 | 0.00 | 0.00 | 0.00 | 78 | 1012.7 |
| 20260830185534 | 79 | 217 | 3.5 | 8.7 | 0.00 | 0.00 | 0.00 | 77 | 1012.9 |
| 20260830185034 | 79 | 217 | 4.3 | 8.7 | 0.00 | 0.00 | 0.00 | 77 | 1012.9 |
| 20260830184600 | 79 | 231 | 4.3 | 8.7 | 0.00 | 0.00 | 0.00 | 77 | 1012.9 |
| 20260830184033 | 79 | 267 | 4.3 | 8.7 | 0.00 | 0.00 | 0.00 | 77 | 1012.8 |
| 20260830183532 | 79 | 253 | 3.5 | 7.8 | 0.00 | 0.00 | 0.00 | 78 | 1012.8 |
| 20260830183057 | 79 | 246 | 4.3 | 7.8 | 0.00 | 0.00 | 0.00 | 77 | 1012.8 |
| 20260830182534 | 79 | 283 | 2.6 | 7.0 | 0.00 | 0.00 | 0.00 | 78 | 1012.8 |
| 20260830182033 | 79 | 236 | 2.6 | 7.0 | 0.00 | 0.00 | 0.00 | 78 | 1012.8 |
| 20260830181553 | 79 | 232 | 3.5 | 7.0 | 0.00 | 0.00 | 0.00 | 78 | 1012.9 |
| 20260830181032 | 78 | 271 | 2.6 | 7.0 | 0.00 | 0.00 | 0.00 | 80 | 1012.8 |
| 20260830180536 | 78 | 228 | 2.6 | 7.0 | 0.00 | 0.00 | 0.00 | 79 | 1012.8 |
| 20260830175531 | 78 | 246 | 2.6 | 7.0 | 0.00 | 0.00 | 0.00 | 81 | 1012.7 |
| 20260830175032 | 77 | 246 | 2.6 | 6.1 | 0.00 | 0.00 | 0.00 | 81 | 1012.7 |
| 20260830174557 | 77 | 273 | 2.6 | 5.2 | 0.00 | 0.00 | 0.00 | 81 | 1012.7 |
| 20260830174033 | 77 | 255 | 1.7 | 5.2 | 0.00 | 0.00 | 0.00 | 81 | 1012.7 |
| 20260830173531 | 77 | 274 | 2.6 | 7.0 | 0.00 | 0.00 | 0.00 | 82 | 1012.6 |
| 20260830173054 | 77 | 273 | 2.6 | 7.0 | 0.00 | 0.00 | 0.00 | 82 | 1012.6 |
| 20260830172531 | 77 | 320 | 1.7 | 6.1 | 0.00 | 0.00 | 0.00 | 83 | 1012.5 |
| 20260830172032 | 76 | 252 | 3.5 | 6.1 | 0.00 | 0.00 | 0.00 | 82 | 1012.4 |
| 20260830171606 | 76 | 265 | 1.7 | 5.2 | 0.00 | 0.00 | 0.00 | 83 | 1012.4 |
| 20260830171118 | 76 | 215 | 1.7 | 6.1 | 0.00 | 0.00 | 0.00 | 84 | 1012.3 |
| 20260830171031 | 76 | 215 | 1.7 | 6.1 | 0.00 | 0.00 | 0.00 | 84 | 1012.3 |
| 20260830170532 | 76 | 283 | 1.7 | 6.1 | 0.00 | 0.00 | 0.00 | 83 | 1012.3 |
| 20260830165534 | 75 | 274 | 2.6 | 6.1 | 0.00 | 0.00 | 0.00 | 83 | 1012.3 |
| 20260830165039 | 76 | 215 | 2.6 | 5.2 | 0.00 | 0.00 | 0.00 | 84 | 1012.2 |
| 20260830164603 | 75 | 286 | 1.7 | 5.2 | 0.00 | 0.00 | 0.00 | 83 | 1012.2 |
| 20260830164034 | 75 | 228 | 2.6 | 5.2 | 0.00 | 0.00 | 0.00 | 84 | 1012.3 |
| 20260830163533 | 75 | 288 | 1.7 | 3.5 | 0.00 | 0.00 | 0.00 | 84 | 1012.3 |
| 20260830163100 | 75 | 252 | 1.7 | 4.3 | 0.00 | 0.00 | 0.00 | 84 | 1012.2 |
| 20260830162533 | 74 | 209 | 1.7 | 4.3 | 0.00 | 0.00 | 0.00 | 83 | 1012.2 |
| 20260830162036 | 74 | 202 | 1.7 | 3.5 | 0.00 | 0.00 | 0.00 | 84 | 1012.3 |
| 20260830161611 | 74 | 0 | 0.9 | 3.5 | 0.00 | 0.00 | 0.00 | 85 | 1012.2 |
| 20260830161032 | 74 | 219 | 0.0 | 2.6 | 0.00 | 0.00 | 0.00 | 85 | 1012.2 |
| 20260830160532 | 74 | 0 | 0.0 | 2.6 | 0.00 | 0.00 | 0.00 | 86 | 1012.2 |
| 20260830160056 | 74 | 248 | 0.0 | 3.5 | 0.00 | 0.00 | 0.00 | 86 | 1012.2 |
| 20260830155532 | 74 | 0 | 0.9 | 3.5 | 0.00 | 0.00 | 0.00 | 86 | 1012.2 |
| 20260830155032 | 73 | 103 | 0.0 | 3.5 | 0.00 | 0.00 | 0.00 | 87 | 1012.2 |
| 20260830154551 | 73 | 0 | 0.0 | 2.6 | 0.00 | 0.00 | 0.00 | 87 | 1012.1 |
| 20260830154033 | 73 | 0 | 0.0 | 2.6 | 0.00 | 0.00 | 0.00 | 87 | 1012.1 |
| 20260830153531 | 73 | 176 | 0.0 | 3.5 | 0.00 | 0.00 | 0.00 | 87 | 1012.2 |
| 20260830153101 | 73 | 0 | 0.0 | 3.5 | 0.00 | 0.00 | 0.00 | 87 | 1012.2 |
| 20260830152532 | 73 | 0 | 0.0 | 0.9 | 0.00 | 0.00 | 0.00 | 87 | 1012.1 |
| 20260830152033 | 73 | 0 | 0.0 | 2.6 | 0.00 | 0.00 | 0.00 | 87 | 1012.1 |
| 20260830151605 | 73 | 0 | 0.0 | 2.6 | 0.00 | 0.00 | 0.00 | 87 | 1012.2 |
| 20260830151032 | 73 | 207 | 0.0 | 1.7 | 0.00 | 0.00 | 0.00 | 88 | 1012.2 |
| 20260830150533 | 73 | 0 | 0.0 | 2.6 | 0.00 | 0.00 | 0.00 | 88 | 1012.3 |
| 20260830150100 | 73 | 0 | 0.0 | 2.6 | 0.00 | 0.00 | 0.00 | 88 | 1012.3 |
| 20260830145532 | 72 | 0 | 0.0 | 1.7 | 0.00 | 0.00 | 0.00 | 89 | 1012.3 |
| 20260830145032 | 72 | 222 | 0.0 | 2.6 | 0.00 | 0.00 | 0.00 | 89 | 1012.2 |
| 20260830144603 | 72 | 0 | 0.0 | 2.6 | 0.00 | 0.00 | 0.00 | 89 | 1012.2 |
| 20260830144033 | 72 | 0 | 0.0 | 1.7 | 0.00 | 0.00 | 0.00 | 89 | 1012.1 |
| 20260830143533 | 72 | 0 | 0.0 | 2.6 | 0.00 | 0.00 | 0.00 | 90 | 1012.1 |
| 20260830143110 | 72 | 184 | 0.0 | 2.6 | 0.00 | 0.00 | 0.00 | 90 | 1012.1 |
| 20260830142532 | 72 | 211 | 0.0 | 2.6 | 0.00 | 0.00 | 0.00 | 90 | 1012.1 |
| 20260830142033 | 72 | 0 | 0.0 | 2.6 | 0.00 | 0.00 | 0.00 | 90 | 1012.1 |
| 20260830141555 | 72 | 199 | 0.0 | 1.7 | 0.00 | 0.00 | 0.00 | 90 | 1012.1 |
| 20260830141033 | 72 | 159 | 0.0 | 0.9 | 0.00 | 0.00 | 0.00 | 90 | 1012.1 |
| 20260830140531 | 72 | 0 | 0.0 | 0.9 | 0.00 | 0.00 | 0.00 | 90 | 1012.0 |
| 20260830140054 | 72 | 0 | 0.0 | 0.9 | 0.00 | 0.00 | 0.00 | 90 | 1012.0 |
| 20260830135531 | 71 | 0 | 0.0 | 0.9 | 0.00 | 0.00 | 0.00 | 90 | 1012.0 |
| 20260830135034 | 71 | 0 | 0.0 | 0.0 | 0.00 | 0.00 | 0.00 | 90 | 1011.9 |
| 20260830134603 | 71 | 0 | 0.0 | 0.0 | 0.00 | 0.00 | 0.00 | 90 | 1011.9 |
| 20260830134033 | 71 | 0 | 0.0 | 0.0 | 0.00 | 0.00 | 0.00 | 90 | 1011.9 |
| 20260830133533 | 71 | 0 | 0.0 | 0.0 | 0.00 | 0.00 | 0.00 | 90 | 1011.9 |
| 20260830133057 | 71 | 0 | 0.0 | 0.0 | 0.00 | 0.00 | 0.00 | 90 | 1011.8 |
| 20260830132534 | 71 | 0 | 0.0 | 0.0 | 0.00 | 0.00 | 0.00 | 90 | 1011.8 |
| 20260830132032 | 71 | 0 | 0.0 | 0.0 | 0.00 | 0.00 | 0.00 | 90 | 1011.7 |
| 20260830131555 | 71 | 0 | 0.0 | 0.9 | 0.00 | 0.00 | 0.00 | 90 | 1011.7 |
| 20260830131032 | 71 | 0 | 0.0 | 0.9 | 0.00 | 0.00 | 0.00 | 90 | 1011.7 |
| 20260830130531 | 71 | 0 | 0.0 | 0.9 | 0.00 | 0.00 | 0.00 | 90 | 1011.6 |
| 20260830130104 | 71 | 0 | 0.0 | 0.9 | 0.00 | 0.00 | 0.00 | 90 | 1011.7 |
| 20260830125531 | 71 | 0 | 0.0 | 0.0 | 0.00 | 0.00 | 0.00 | 90 | 1011.7 |
| 20260830125033 | 71 | 0 | 0.0 | 1.7 | 0.00 | 0.00 | 0.00 | 90 | 1011.6 |
| 20260830124600 | 71 | 0 | 0.0 | 1.7 | 0.00 | 0.00 | 0.00 | 91 | 1011.6 |
| 20260830124032 | 72 | 0 | 0.0 | 0.9 | 0.00 | 0.00 | 0.00 | 91 | 1011.5 |
| 20260830123532 | 71 | 0 | 0.0 | 0.9 | 0.00 | 0.00 | 0.00 | 91 | 1011.5 |
| 20260830123125 | 72 | 0 | 0.0 | 0.9 | 0.00 | 0.00 | 0.00 | 91 | 1011.6 |
| 20260830122532 | 72 | 0 | 0.0 | 0.9 | 0.00 | 0.00 | 0.00 | 91 | 1011.5 |
| 20260830122034 | 72 | 0 | 0.0 | 1.7 | 0.00 | 0.00 | 0.00 | 91 | 1011.5 |
| 20260830121557 | 72 | 0 | 0.0 | 1.7 | 0.00 | 0.00 | 0.00 | 91 | 1011.5 |
| 20260830121033 | 72 | 0 | 0.0 | 1.7 | 0.00 | 0.00 | 0.00 | 91 | 1011.5 |
| 20260830120531 | 72 | 0 | 0.0 | 0.9 | 0.00 | 0.00 | 0.00 | 91 | 1011.5 |
| 20260830120058 | 72 | 0 | 0.0 | 0.9 | 0.00 | 0.00 | 0.00 | 92 | 1011.5 |
| 20260830115532 | 72 | 0 | 0.0 | 0.9 | 0.00 | 0.00 | 0.00 | 92 | 1011.5 |
| 20260830115031 | 72 | 0 | 0.0 | 0.9 | 0.00 | 0.00 | 0.00 | 92 | 1011.4 |
| 20260830114607 | 72 | 0 | 0.0 | 0.9 | 0.00 | 0.00 | 0.00 | 92 | 1011.4 |
| 20260830114031 | 72 | 0 | 0.0 | 0.0 | 0.00 | 0.00 | 0.00 | 92 | 1011.5 |
| 20260830113531 | 72 | 0 | 0.0 | 0.0 | 0.00 | 0.00 | 0.00 | 92 | 1011.6 |
| 20260830113056 | 72 | 0 | 0.0 | 0.0 | 0.00 | 0.00 | 0.00 | 92 | 1011.6 |
| 20260830112534 | 72 | 0 | 0.0 | 0.9 | 0.00 | 0.00 | 0.00 | 92 | 1011.6 |
| 20260830112032 | 72 | 0 | 0.0 | 0.9 | 0.00 | 0.00 | 0.00 | 92 | 1011.5 |
| 20260830111554 | 72 | 0 | 0.0 | 0.9 | 0.00 | 0.00 | 0.00 | 92 | 1011.4 |
| 20260830111032 | 72 | 0 | 0.0 | 0.9 | 0.00 | 0.00 | 0.00 | 92 | 1011.4 |
| 20260830110531 | 72 | 0 | 0.0 | 0.9 | 0.00 | 0.00 | 0.00 | 92 | 1011.5 |
| 20260830110054 | 72 | 0 | 0.0 | 1.7 | 0.00 | 0.00 | 0.00 | 92 | 1011.5 |
| 20260830105531 | 72 | 0 | 0.0 | 1.7 | 0.00 | 0.00 | 0.00 | 92 | 1011.5 |
| 20260830105035 | 72 | 0 | 0.0 | 1.7 | 0.00 | 0.00 | 0.00 | 92 | 1011.5 |
| 20260830104556 | 72 | 0 | 0.0 | 2.6 | 0.00 | 0.00 | 0.00 | 92 | 1011.5 |
| 20260830104036 | 72 | 0 | 0.0 | 2.6 | 0.00 | 0.00 | 0.00 | 92 | 1011.5 |
| 20260830103539 | 72 | 0 | 0.9 | 2.6 | 0.00 | 0.00 | 0.00 | 92 | 1011.4 |
| 20260830103054 | 72 | 0 | 0.0 | 2.6 | 0.00 | 0.00 | 0.00 | 92 | 1011.3 |
| 20260830102535 | 72 | 0 | 0.9 | 2.6 | 0.00 | 0.00 | 0.00 | 92 | 1011.3 |
| 20260830102035 | 72 | 0 | 0.0 | 1.7 | 0.00 | 0.00 | 0.00 | 92 | 1011.3 |
| 20260830101556 | 72 | 0 | 0.0 | 0.9 | 0.00 | 0.00 | 0.00 | 92 | 1011.3 |
| 20260830101035 | 72 | 0 | 0.0 | 0.9 | 0.00 | 0.00 | 0.00 | 92 | 1011.3 |
| 20260830100537 | 72 | 0 | 0.0 | 1.7 | 0.00 | 0.00 | 0.00 | 92 | 1011.3 |
| 20260830095537 | 72 | 0 | 0.0 | 1.7 | 0.00 | 0.00 | 0.00 | 92 | 1011.2 |
| 20260830095038 | 72 | 0 | 0.0 | 1.7 | 0.00 | 0.00 | 0.00 | 91 | 1011.2 |
| 20260830094559 | 72 | 0 | 0.0 | 0.9 | 0.00 | 0.00 | 0.00 | 91 | 1011.3 |
| 20260830094034 | 72 | 0 | 0.0 | 1.7 | 0.00 | 0.00 | 0.00 | 91 | 1011.3 |
| 20260830093537 | 72 | 0 | 0.0 | 1.7 | 0.00 | 0.00 | 0.00 | 91 | 1011.2 |
| 20260830093055 | 72 | 0 | 0.0 | 0.9 | 0.00 | 0.00 | 0.00 | 92 | 1011.3 |
| 20260830092535 | 72 | 0 | 0.0 | 0.9 | 0.00 | 0.00 | 0.00 | 91 | 1011.3 |
| 20260830092036 | 72 | 0 | 0.0 | 0.9 | 0.00 | 0.00 | 0.00 | 91 | 1011.4 |
| 20260830091604 | 72 | 0 | 0.0 | 0.9 | 0.00 | 0.00 | 0.00 | 91 | 1011.4 |
| 20260830091035 | 72 | 0 | 0.0 | 0.9 | 0.00 | 0.00 | 0.00 | 91 | 1011.3 |
| 20260830090533 | 72 | 0 | 0.0 | 0.9 | 0.00 | 0.00 | 0.00 | 91 | 1011.3 |
| 20260830090105 | 72 | 0 | 0.0 | 0.9 | 0.00 | 0.00 | 0.00 | 91 | 1011.3 |
| 20260830085536 | 72 | 0 | 0.0 | 0.9 | 0.00 | 0.00 | 0.00 | 91 | 1011.3 |
| 20260830085035 | 72 | 0 | 0.0 | 0.9 | 0.00 | 0.00 | 0.00 | 91 | 1011.4 |
| 20260830084614 | 72 | 0 | 0.0 | 0.0 | 0.00 | 0.00 | 0.00 | 91 | 1011.3 |
| 20260830084036 | 72 | 0 | 0.0 | 0.0 | 0.00 | 0.00 | 0.00 | 91 | 1011.3 |
| 20260830083537 | 72 | 0 | 0.0 | 0.0 | 0.00 | 0.00 | 0.00 | 91 | 1011.3 |
| 20260830083105 | 72 | 0 | 0.0 | 0.0 | 0.00 | 0.00 | 0.00 | 91 | 1011.3 |
| 20260830082535 | 72 | 0 | 0.0 | 0.0 | 0.00 | 0.00 | 0.00 | 91 | 1011.4 |
| 20260830082035 | 72 | 0 | 0.0 | 0.0 | 0.00 | 0.00 | 0.00 | 91 | 1011.4 |
| 20260830081606 | 72 | 0 | 0.0 | 0.0 | 0.00 | 0.00 | 0.00 | 91 | 1011.5 |
| 20260830081035 | 72 | 0 | 0.0 | 0.0 | 0.00 | 0.00 | 0.00 | 91 | 1011.4 |
| 20260830080535 | 72 | 0 | 0.0 | 0.9 | 0.00 | 0.00 | 0.00 | 91 | 1011.5 |
| 20260830080055 | 72 | 0 | 0.0 | 0.9 | 0.00 | 0.00 | 0.00 | 91 | 1011.5 |
| 20260830075536 | 72 | 0 | 0.0 | 0.0 | 0.00 | 0.00 | 0.00 | 91 | 1011.4 |
| 20260830075036 | 72 | 0 | 0.0 | 0.0 | 0.00 | 0.00 | 0.00 | 91 | 1011.4 |
| 20260830074614 | 72 | 0 | 0.0 | 0.9 | 0.00 | 0.00 | 0.00 | 91 | 1011.5 |
| 20260830074039 | 72 | 0 | 0.0 | 0.9 | 0.00 | 0.00 | 0.00 | 91 | 1011.5 |
| 20260830073535 | 73 | 0 | 0.0 | 0.0 | 0.00 | 0.00 | 0.00 | 91 | 1011.5 |
| 20260830073106 | 73 | 0 | 0.0 | 0.0 | 0.00 | 0.00 | 0.00 | 90 | 1011.5 |
| 20260830072536 | 73 | 0 | 0.0 | 0.9 | 0.00 | 0.00 | 0.00 | 90 | 1011.5 |
| 20260830072037 | 73 | 0 | 0.0 | 0.9 | 0.00 | 0.00 | 0.00 | 90 | 1011.6 |
| 20260830071558 | 73 | 0 | 0.0 | 0.9 | 0.00 | 0.00 | 0.00 | 90 | 1011.7 |
| 20260830071036 | 73 | 203 | 0.0 | 0.0 | 0.00 | 0.00 | 0.00 | 90 | 1011.7 |
| 20260830070535 | 73 | 0 | 0.0 | 0.0 | 0.00 | 0.00 | 0.00 | 90 | 1011.6 |
| 20260830070104 | 73 | 0 | 0.0 | 0.0 | 0.00 | 0.00 | 0.00 | 90 | 1011.6 |
| 20260830065535 | 73 | 0 | 0.0 | 0.0 | 0.00 | 0.00 | 0.00 | 90 | 1011.7 |
| 20260830065036 | 73 | 0 | 0.0 | 0.9 | 0.00 | 0.00 | 0.00 | 90 | 1011.7 |
| 20260830064559 | 73 | 0 | 0.0 | 0.9 | 0.00 | 0.00 | 0.00 | 90 | 1011.6 |
| 20260830064036 | 73 | 0 | 0.0 | 0.9 | 0.00 | 0.00 | 0.00 | 90 | 1011.6 |
| 20260830063535 | 73 | 0 | 0.0 | 0.0 | 0.00 | 0.00 | 0.00 | 90 | 1011.5 |
| 20260830063054 | 73 | 0 | 0.0 | 0.0 | 0.00 | 0.00 | 0.00 | 90 | 1011.5 |
| 20260830062532 | 73 | 0 | 0.0 | 0.0 | 0.00 | 0.00 | 0.00 | 90 | 1011.5 |
| 20260830062032 | 73 | 0 | 0.0 | 0.9 | 0.00 | 0.00 | 0.00 | 90 | 1011.5 |
| 20260830061603 | 73 | 0 | 0.0 | 0.9 | 0.00 | 0.00 | 0.00 | 90 | 1011.4 |
| 20260830061035 | 73 | 0 | 0.0 | 0.9 | 0.00 | 0.00 | 0.00 | 90 | 1011.4 |
| 20260830060535 | 73 | 0 | 0.0 | 1.7 | 0.00 | 0.00 | 0.00 | 90 | 1011.5 |
| 20260830060105 | 73 | 0 | 0.0 | 1.7 | 0.00 | 0.00 | 0.00 | 90 | 1011.6 |
| 20260830055538 | 73 | 0 | 0.0 | 1.7 | 0.00 | 0.00 | 0.00 | 90 | 1011.6 |
| 20260830055036 | 74 | 0 | 0.0 | 0.9 | 0.00 | 0.00 | 0.00 | 90 | 1011.6 |
| 20260830054557 | 73 | 306 | 0.0 | 0.9 | 0.00 | 0.00 | 0.00 | 90 | 1011.6 |
| 20260830054034 | 74 | 0 | 0.0 | 0.0 | 0.00 | 0.00 | 0.00 | 90 | 1011.6 |
| 20260830053535 | 74 | 0 | 0.0 | 0.9 | 0.00 | 0.00 | 0.00 | 90 | 1011.4 |
| 20260830053058 | 74 | 0 | 0.0 | 0.9 | 0.00 | 0.00 | 0.00 | 90 | 1011.5 |
| 20260830052535 | 74 | 0 | 0.0 | 0.9 | 0.00 | 0.00 | 0.00 | 90 | 1011.4 |
| 20260830052035 | 74 | 0 | 0.0 | 0.0 | 0.00 | 0.00 | 0.00 | 90 | 1011.6 |
| 20260830051601 | 74 | 0 | 0.0 | 0.0 | 0.00 | 0.00 | 0.00 | 90 | 1011.6 |
| 20260830051035 | 74 | 0 | 0.0 | 0.0 | 0.00 | 0.00 | 0.00 | 90 | 1011.5 |
| 20260830050535 | 74 | 0 | 0.0 | 0.0 | 0.00 | 0.00 | 0.00 | 90 | 1011.6 |
| 20260830045535 | 74 | 0 | 0.0 | 0.0 | 0.00 | 0.00 | 0.00 | 90 | 1011.7 |
| 20260830045036 | 74 | 0 | 0.0 | 0.9 | 0.00 | 0.00 | 0.00 | 90 | 1011.7 |
| 20260830044554 | 74 | 0 | 0.0 | 0.9 | 0.00 | 0.00 | 0.00 | 90 | 1011.6 |
| 20260830044035 | 74 | 0 | 0.0 | 0.9 | 0.00 | 0.00 | 0.00 | 90 | 1011.6 |
| 20260830043534 | 74 | 306 | 0.0 | 0.9 | 0.00 | 0.00 | 0.00 | 90 | 1011.6 |
| 20260830043057 | 74 | 0 | 0.0 | 0.9 | 0.00 | 0.00 | 0.00 | 90 | 1011.7 |
| 20260830042535 | 74 | 0 | 0.0 | 0.0 | 0.00 | 0.00 | 0.00 | 89 | 1011.6 |
| 20260830042034 | 74 | 0 | 0.0 | 0.9 | 0.00 | 0.00 | 0.00 | 89 | 1011.5 |
| 20260830041613 | 74 | 0 | 0.0 | 1.7 | 0.00 | 0.00 | 0.00 | 89 | 1011.5 |
| 20260830041036 | 74 | 0 | 0.0 | 1.7 | 0.00 | 0.00 | 0.00 | 89 | 1011.4 |
| 20260830040535 | 74 | 0 | 0.0 | 1.7 | 0.00 | 0.00 | 0.00 | 89 | 1011.3 |
| 20260830040108 | 74 | 0 | 0.0 | 1.7 | 0.00 | 0.00 | 0.00 | 89 | 1011.4 |
| 20260830035535 | 74 | 0 | 0.0 | 1.7 | 0.00 | 0.00 | 0.00 | 89 | 1011.3 |
| 20260830035038 | 74 | 0 | 0.0 | 1.7 | 0.00 | 0.00 | 0.00 | 89 | 1011.3 |
| 20260830034557 | 74 | 306 | 0.9 | 2.6 | 0.00 | 0.00 | 0.00 | 89 | 1011.1 |